GEFSSE_500_meanwind_006.txt.gz
Wind_Speed
23 23 23 22 20 18 15 13 12 12 12 12 12 12 12 12 11 11 11 10 7 5 6 7 8 6 2 4 5 5 5 5 5 4 4 3 3 3 3 3 1 2 4
22 23 22 21 20 19 17 15 13 12 12 11 12 11 12 12 11 11 10 10 10 9 9 9 9 8 6 3 1 2 3 3 4 5 5 4 4 5 6 6 6 3 0
20 20 19 19 19 19 17 16 13 12 11 11 11 11 12 12 12 11 10 10 10 11 11 10 9 9 8 7 4 2 1 2 2 3 4 5 7 7 6 7 8 7 5
16 17 16 16 16 17 16 15 13 12 11 10 10 10 10 11 10 10 10 10 10 11 11 11 10 9 9 8 8 5 2 1 1 1 3 5 6 5 5 6 9 8 7
12 13 13 13 13 14 15 15 14 12 11 10 9 8 8 9 9 8 9 9 9 9 10 11 11 9 8 8 8 7 5 3 3 5 6 7 6 5 5 6 7 8 8
8 9 10 11 11 11 11 12 13 13 13 11 10 9 8 7 7 8 9 10 9 8 8 9 10 10 8 6 7 7 6 5 5 5 7 8 7 7 8 9 9 9 9
3 3 5 7 8 8 8 9 11 12 13 12 12 11 9 8 8 9 9 10 10 8 7 8 9 10 9 6 6 6 5 5 6 6 8 8 9 9 10 10 10 9 8
6 5 3 1 3 5 6 6 8 9 10 11 11 11 11 10 10 11 11 10 10 9 7 7 9 10 10 9 7 5 5 6 6 7 9 9 10 10 11 10 9 9 9
8 8 8 7 5 5 5 5 5 6 7 8 9 10 10 10 10 11 12 11 10 9 7 7 9 10 10 10 9 7 6 8 8 9 10 11 11 10 10 11 11 11 10
11 11 11 12 11 10 9 8 6 5 6 6 8 9 10 9 8 9 10 11 11 10 8 7 8 9 9 9 9 8 7 8 9 10 11 12 13 9 8 10 12 14 14
13 14 14 14 15 15 15 13 11 9 8 9 10 11 11 11 9 8 8 10 10 10 9 7 8 8 9 9 9 8 7 7 8 10 12 12 12 11 12 13 13 14 16
15 15 16 16 16 17 17 16 15 13 12 12 13 15 16 14 12 11 10 10 10 9 8 6 8 9 9 9 10 9 8 7 8 10 11 12 12 13 13 13 14 15 16
16 17 17 17 17 16 15 15 15 16 15 14 15 16 17 17 15 14 12 12 11 10 8 8 8 9 10 10 10 10 10 9 9 10 11 12 13 14 14 13 13 14 13
16 17 18 19 17 16 15 14 13 12 11 11 12 15 17 17 17 16 15 15 13 12 11 10 11 11 12 11 11 11 11 10 9 10 12 13 14 15 15 13 12 13 13
20 19 20 19 17 16 16 15 13 11 10 11 12 14 15 15 15 15 16 17 17 16 15 14 14 14 14 14 14 14 14 12 11 10 12 13 14 15 15 15 13 12 13
27 25 23 19 17 17 16 15 13 13 14 16 15 13 13 14 14 15 16 18 19 18 17 17 18 19 18 17 17 17 17 15 13 12 12 14 15 15 16 16 16 14 13
26 25 25 22 18 19 19 18 16 15 16 15 15 14 14 14 14 15 16 16 18 18 18 20 21 23 23 22 20 18 17 15 13 13 13 14 17 17 17 17 17 15 13
26 24 26 27 25 23 24 22 20 18 16 15 15 15 16 16 16 16 15 17 19 20 20 21 21 23 25 26 23 20 18 16 15 15 14 15 17 18 17 16 16 16 15
27 27 29 31 30 26 24 22 20 19 18 16 16 16 17 18 18 19 18 19 21 20 20 20 21 23 25 26 25 22 19 18 17 17 17 17 17 17 17 16 16 16 15
33 32 33 33 31 27 23 22 22 21 20 19 19 18 19 20 20 20 21 21 23 23 23 22 22 23 24 24 24 23 21 20 18 17 18 18 16 15 16 17 17 15 14
32 34 37 36 32 29 29 28 26 24 23 22 22 21 22 24 24 24 25 26 26 26 24 24 23 23 24 24 24 22 21 21 19 18 17 17 15 14 14 17 17 15 13
30 35 39 37 35 35 35 33 30 27 25 24 24 24 25 26 27 28 29 29 28 27 25 24 23 23 24 25 25 23 21 21 21 19 17 16 15 14 14 16 17 16 14
34 35 36 36 38 41 42 38 32 28 25 26 27 27 27 29 29 29 30 29 28 26 25 24 23 23 24 25 24 23 21 21 21 20 18 15 14 14 14 15 16 17 16
37 38 38 38 40 41 42 38 32 27 25 28 30 30 30 32 32 31 31 30 29 27 26 26 24 22 23 23 23 22 20 20 20 18 18 15 13 12 12 13 15 17 15
38 41 42 40 39 38 34 31 28 27 28 30 31 32 32 33 34 33 32 31 31 30 29 28 24 21 21 22 22 21 20 20 20 18 16 14 14 12 12 12 13 15 16
35 39 42 40 39 39 39 36 33 32 32 31 31 33 34 35 36 36 35 34 34 33 32 28 24 21 21 21 22 22 20 19 19 16 14 15 15 12 12 12 12 13 13

GEFSSE_500_meanwind_012.txt.gz
Wind_Speed
17 17 17 18 19 19 20 19 18 17 16 15 14 13 13 12 12 12 12 11 10 10 10 10 9 9 6 2 0 1 3 4 3 3 4 4 5 6 7 7 6 4 4
16 17 17 18 18 19 19 19 18 17 16 14 14 14 14 14 13 13 13 12 11 10 10 9 9 10 8 5 2 2 2 3 2 2 4 5 7 8 9 10 9 7 4
14 15 16 17 18 18 19 18 17 16 16 15 14 14 14 13 13 13 12 12 11 10 9 9 9 9 9 7 5 2 2 3 3 3 4 5 7 9 10 9 8 8 7
10 11 14 16 16 17 18 18 17 16 15 14 13 13 13 13 13 13 12 11 9 9 9 9 8 7 7 6 5 4 3 3 4 4 4 5 7 8 8 8 8 8 9
7 8 10 12 14 15 16 16 16 16 15 14 13 12 12 12 12 12 12 11 9 8 9 10 9 7 5 5 4 3 3 3 4 5 6 7 8 8 9 9 9 9 9
5 6 8 9 11 12 13 13 13 13 13 13 13 12 12 11 11 12 12 11 10 8 7 8 9 8 6 4 3 2 2 3 4 5 7 7 8 8 9 10 10 10 10
1 3 6 8 10 11 11 10 10 10 10 10 10 10 10 10 10 10 10 11 10 8 6 5 6 6 7 6 4 3 2 2 4 5 6 7 8 10 10 11 11 10 9
4 5 6 7 8 10 10 10 9 8 8 7 7 8 8 8 8 8 8 8 8 7 6 4 5 5 5 5 5 5 5 5 4 5 5 6 8 10 11 11 12 11 10
6 7 8 9 10 10 10 10 10 9 9 8 7 7 8 8 8 7 7 7 8 7 7 5 5 5 5 4 5 5 6 7 8 6 6 7 7 9 10 10 11 11 12
8 9 10 11 12 12 13 13 13 12 12 11 10 9 9 10 9 9 8 8 8 8 8 7 6 7 7 6 6 6 6 8 9 9 8 8 8 8 9 11 12 13 13
10 12 13 14 14 15 15 15 15 15 14 13 13 12 12 12 11 10 9 9 9 9 9 8 8 8 9 9 9 8 8 9 10 11 11 10 9 9 10 11 12 13 15
13 14 15 16 16 17 17 17 17 16 15 14 14 13 13 13 12 12 11 10 10 10 10 9 9 10 11 11 11 11 11 11 12 12 13 12 11 11 11 12 13 14 15
16 17 17 16 16 18 18 18 18 17 15 14 13 12 11 11 12 12 12 11 12 12 12 12 12 12 12 12 13 13 14 14 15 15 14 13 12 12 12 13 14 15 15
19 19 19 17 17 19 20 21 20 17 15 13 12 12 12 12 13 12 12 12 13 13 13 14 14 15 14 14 14 15 16 17 18 18 17 15 14 13 14 14 15 16 16
22 22 20 19 19 21 22 22 21 18 16 15 15 15 15 15 15 15 14 14 14 15 15 15 16 16 16 16 16 16 18 19 20 20 20 18 16 16 16 17 17 18 18
23 21 20 19 20 22 23 23 22 20 19 19 18 19 19 18 17 17 17 17 17 16 16 15 15 15 15 16 17 18 19 20 20 21 21 20 19 19 19 19 18 19 19
24 22 22 22 24 25 24 24 23 23 22 22 22 21 20 19 18 17 18 19 19 19 18 17 17 16 16 16 18 19 20 20 21 21 21 21 21 21 22 21 21 20 19
25 25 26 26 27 29 28 27 25 25 25 24 24 22 21 20 19 18 19 20 20 21 20 20 19 18 18 18 19 20 21 21 22 21 21 22 22 23 23 23 22 21 20
29 29 29 30 31 32 32 31 30 28 27 25 23 23 24 23 22 21 21 21 21 21 20 20 20 21 21 21 21 22 21 22 22 23 22 23 23 23 24 24 23 22 20
31 32 32 33 35 35 35 35 34 32 30 28 26 26 26 27 26 24 23 23 23 22 21 22 24 25 24 23 23 23 23 23 23 22 22 22 23 23 23 24 23 22 21
33 34 36 37 38 37 36 37 38 37 34 32 31 30 30 30 29 27 26 25 25 24 23 23 25 26 26 24 23 23 23 23 23 23 22 22 22 23 23 23 23 22 21
34 36 38 39 38 38 38 39 39 39 37 35 33 33 33 33 33 31 28 27 27 27 26 25 25 25 25 24 23 22 23 23 23 23 22 22 22 23 23 23 23 22 21
34 37 39 40 39 39 39 40 41 40 39 37 36 35 35 35 36 33 30 29 29 28 27 26 26 25 25 25 25 24 23 22 23 22 22 22 23 23 23 23 22 22 21
35 37 40 41 42 42 42 43 43 41 39 38 37 36 35 33 31 30 30 30 29 29 28 27 27 26 27 28 27 25 24 23 22 22 22 22 23 23 23 22 21 21 20
33 36 39 41 44 44 43 42 41 39 38 37 36 36 36 31 27 27 28 29 29 29 28 28 29 29 30 30 29 27 25 23 22 23 22 22 23 22 22 21 21 20 19
36 37 38 40 42 43 42 39 39 36 35 36 36 37 35 30 28 27 29 30 30 30 30 31 32 32 33 33 31 29 26 25 24 23 22 22 21 21 21 21 20 18 18

GEFSSE_500_meanwind_018.txt.gz
Wind_Speed
18 18 17 17 16 16 15 16 17 17 17 17 17 15 15 14 13 13 12 11 11 11 11 11 9 7 4 2 1 1 2 3 3 4 5 5 5 5 5 6 6 6 4
19 19 17 16 15 15 14 14 15 15 16 16 15 15 15 14 13 12 12 11 11 10 10 9 8 7 5 2 1 1 2 2 3 4 5 6 6 6 6 6 6 6 5
19 19 18 16 15 14 13 13 13 13 13 13 13 13 13 13 13 12 11 11 10 10 9 8 7 6 4 3 2 2 2 2 3 4 6 7 8 8 8 7 6 5 5
18 18 17 16 15 14 13 12 12 11 11 11 11 11 11 11 11 11 11 10 9 8 8 8 6 5 4 4 3 3 3 3 4 5 6 8 9 10 9 8 7 7 7
16 15 15 14 13 12 11 10 10 9 9 9 9 9 9 10 10 10 10 9 7 6 6 7 6 6 5 5 5 5 5 5 5 6 7 8 9 10 10 10 9 9 8
12 11 11 11 11 10 9 9 8 8 8 8 8 8 8 8 8 8 8 7 6 5 4 5 5 6 6 6 7 7 7 7 7 7 8 9 10 11 11 12 11 11 11
7 6 6 7 7 8 8 8 8 7 7 6 6 6 6 6 6 6 6 6 5 4 3 4 4 5 5 7 8 9 9 9 9 10 9 9 10 11 12 12 12 12 12
4 3 3 4 5 5 6 7 7 7 7 6 5 5 5 5 6 6 6 5 4 4 3 4 4 5 6 7 8 9 11 11 11 11 12 12 12 12 13 12 12 12 13
3 1 1 3 4 5 6 7 7 8 9 9 8 8 8 8 8 7 7 7 6 6 5 5 6 6 7 7 8 9 11 13 13 12 13 13 13 14 14 13 13 13 13
4 3 3 4 5 6 7 7 8 9 10 10 11 11 11 11 10 10 9 8 8 8 8 7 7 7 8 8 8 9 11 13 14 13 13 13 14 15 15 15 15 16 16
6 5 4 6 7 8 8 9 9 9 10 11 11 12 13 14 13 12 11 10 9 9 9 9 9 9 9 9 10 10 11 13 14 14 14 14 15 15 15 15 16 17 18
9 8 7 8 10 11 11 10 10 10 11 11 12 12 13 14 14 13 12 12 11 10 10 10 10 10 11 11 11 11 12 13 15 16 17 17 17 17 16 16 17 18 20
13 13 12 12 13 14 14 13 12 11 11 12 12 13 13 14 14 14 14 14 13 12 12 12 12 12 13 13 13 12 12 13 15 17 18 19 20 20 19 18 18 20 21
18 18 18 18 17 17 16 15 14 14 14 14 14 13 14 15 15 16 17 17 16 16 15 14 14 14 15 15 14 14 14 14 14 16 18 19 20 21 21 21 21 22 23
21 21 20 20 20 19 19 18 17 17 17 16 16 15 15 16 18 19 20 20 20 19 18 16 16 16 16 16 15 15 15 16 16 17 18 19 21 22 22 22 22 23 24
22 22 22 22 22 22 22 22 21 21 20 20 19 18 17 18 20 21 21 21 22 21 20 18 17 17 17 17 16 16 17 18 18 19 20 20 21 21 21 22 23 23 24
24 24 24 24 25 25 25 25 25 25 25 24 23 22 21 21 21 22 22 23 23 22 21 19 19 19 18 18 18 18 19 20 21 22 22 22 22 22 22 22 22 23 24
27 27 27 27 28 29 29 30 30 30 29 29 29 27 25 24 24 24 23 24 25 24 24 22 21 20 19 19 19 20 21 22 23 24 24 23 22 22 22 21 22 22 23
31 30 30 30 31 33 34 34 34 34 35 35 34 32 30 27 26 26 26 26 26 27 26 25 24 23 22 21 21 21 22 23 23 24 23 23 23 22 22 22 22 22 23
34 33 33 34 35 36 37 36 37 38 40 40 39 37 34 31 30 30 28 28 27 28 27 27 27 26 25 24 23 23 23 22 22 21 22 23 23 23 22 22 22 23 24
37 36 36 37 38 38 39 40 41 42 44 44 43 41 38 35 33 31 30 30 30 30 29 29 29 28 27 26 25 24 24 22 21 21 21 22 23 23 23 22 23 23 24
36 36 37 38 39 40 42 44 44 44 45 43 43 42 39 36 34 32 31 31 31 32 32 31 30 29 28 27 26 25 24 24 22 21 22 22 23 23 23 23 24 24 25
36 36 38 39 42 43 45 46 46 46 47 48 45 44 41 38 36 34 34 33 33 33 33 33 31 29 28 28 27 25 24 25 25 23 23 23 23 23 24 25 25 25 25
37 38 40 42 43 45 46 47 47 47 48 48 47 44 43 43 40 37 35 34 33 34 33 33 31 30 29 29 28 26 26 26 25 25 25 24 24 24 25 26 26 26 25
40 41 42 44 45 46 48 49 49 49 50 50 50 48 46 43 41 38 37 35 33 33 33 31 30 30 30 29 29 28 27 27 27 27 27 27 26 25 26 27 27 26 25
42 43 45 46 47 48 49 50 50 51 51 51 50 48 45 41 38 36 35 34 33 32 32 32 31 30 31 31 31 30 29 29 30 29 28 29 28 27 27 28 27 26 24

GEFSSE_500_meanwind_024.txt.gz
Wind_Speed
16 16 16 16 16 15 15 15 16 16 16 15 15 14 13 12 12 12 13 14 14 14 13 12 11 10 9 9 9 9 10 10 10 9 9 10 10 11 11 10 8 6 4
15 15 15 15 15 14 13 13 13 13 13 12 12 12 12 12 11 11 11 11 12 12 12 12 11 10 10 10 10 10 10 10 10 10 10 10 11 11 12 11 9 7 4
15 14 14 13 13 12 10 10 10 9 9 9 9 10 10 11 11 10 10 10 10 10 11 11 11 10 10 10 10 10 11 11 12 12 12 12 12 12 12 11 10 8 6
15 14 13 12 12 11 9 9 8 8 8 8 8 8 9 9 9 10 9 9 9 9 10 11 11 11 11 10 10 11 11 11 12 12 12 12 13 12 12 12 11 9 8
13 13 12 11 11 10 9 8 8 7 7 7 8 8 8 8 8 8 8 8 8 9 9 10 10 11 11 11 11 11 11 11 11 12 12 12 12 13 13 13 13 11 10
9 10 9 9 9 8 8 8 7 7 7 7 7 7 7 7 7 8 8 8 8 8 9 10 10 11 11 12 12 11 11 11 11 11 12 12 12 13 14 14 13 13 12
5 6 6 5 5 5 5 6 6 6 6 7 7 7 8 8 8 8 8 8 8 8 9 9 10 10 11 11 12 12 12 12 12 12 11 11 12 13 14 14 14 13 13
3 3 3 2 2 3 4 4 5 6 7 7 8 8 9 10 10 10 10 9 9 9 9 9 10 10 10 11 12 12 12 12 12 12 12 11 12 13 14 14 14 14 14
6 4 2 1 2 4 5 6 6 7 7 8 9 9 10 11 12 12 12 11 11 10 10 10 10 10 10 11 12 13 13 13 13 13 13 12 13 13 14 15 15 15 15
9 7 5 4 4 5 6 8 9 9 9 9 10 10 10 11 12 13 13 12 11 11 11 11 10 11 11 11 12 14 15 14 14 14 14 14 14 15 15 15 16 16 16
11 9 8 7 6 7 8 9 11 11 11 11 11 11 11 11 12 12 13 12 12 12 12 12 12 12 12 13 13 14 16 16 16 15 15 15 15 16 16 16 16 16 16
13 12 11 10 10 10 11 12 12 12 12 12 11 12 12 13 13 13 13 13 13 13 13 13 14 14 14 14 14 15 17 18 18 16 16 16 16 17 18 18 18 17 17
15 15 14 14 14 15 15 15 15 14 13 13 13 14 15 15 14 14 14 15 15 15 15 15 15 16 16 16 16 16 17 18 18 18 17 18 18 19 20 20 20 19 17
17 18 17 18 18 18 18 17 17 16 15 15 16 17 17 17 17 17 17 17 17 18 17 17 17 17 17 17 16 17 18 18 18 18 18 18 19 21 22 22 21 20 19
18 18 19 19 20 20 21 20 20 19 18 19 19 20 20 21 21 21 21 21 21 21 20 20 20 19 18 17 17 18 18 18 18 18 19 20 20 21 22 22 22 21 20
19 19 20 20 21 22 22 23 23 22 22 22 22 24 25 25 26 27 27 26 26 25 25 23 22 21 20 20 19 19 19 18 18 19 20 21 21 22 22 22 22 21 21
22 22 22 22 23 24 25 25 25 25 24 25 25 26 28 29 30 31 32 32 31 30 28 27 26 24 23 22 21 20 19 19 19 20 21 21 21 22 22 21 21 20 20
26 26 26 26 26 27 28 29 28 27 27 27 28 29 31 33 34 34 35 36 35 35 33 30 28 26 25 24 22 21 21 21 21 21 21 21 21 20 20 21 21 21 20
30 29 30 31 31 31 32 32 31 31 30 30 30 31 32 34 35 37 37 37 38 37 35 33 30 28 27 26 24 23 22 22 22 22 22 22 21 21 20 21 22 22 21
33 33 34 35 35 35 35 35 35 34 33 33 33 34 34 36 38 38 38 38 38 36 35 34 32 29 28 27 26 25 24 23 22 22 22 22 22 22 23 22 22 23 23
36 36 37 38 38 39 38 38 37 36 35 35 35 36 37 38 40 41 39 40 40 38 38 35 33 30 29 27 27 26 25 24 22 22 22 22 22 23 23 24 24 24 24
39 39 40 41 41 41 41 40 38 37 36 37 38 39 40 41 42 43 43 42 41 41 39 36 34 31 30 29 29 28 26 25 24 22 22 22 23 23 24 25 26 26 26
43 42 42 42 42 42 41 40 39 39 38 38 39 40 42 43 44 45 44 44 43 42 40 38 35 33 31 30 30 29 27 26 25 23 22 22 23 24 25 25 26 27 27
44 44 43 43 42 41 41 40 40 40 40 41 42 43 44 45 46 46 46 46 46 45 43 40 37 34 32 32 31 30 28 27 27 26 24 23 23 24 25 27 27 28 28
44 44 44 43 41 40 40 39 40 40 41 42 44 45 46 47 48 48 48 48 46 45 43 41 38 36 34 32 31 31 29 29 28 27 26 26 25 25 25 27 29 29 30
43 43 43 42 41 40 40 40 41 42 43 45 46 47 48 49 49 49 48 46 45 43 41 40 37 36 35 33 33 32 30 29 29 29 28 28 28 28 28 28 29 29 30

GEFSSE_500_meanwind_030.txt.gz
Wind_Speed
18 20 19 18 18 17 16 15 14 14 14 14 14 14 14 14 14 15 15 15 16 16 16 16 15 14 14 13 13 13 13 12 12 11 11 11 10 9 9 7 6 5 3
17 17 17 16 15 15 14 12 11 11 11 11 12 12 12 13 13 14 14 14 15 15 15 15 15 14 13 13 12 12 12 12 12 11 11 11 11 11 10 8 6 4 2
15 15 14 13 12 12 11 10 9 9 9 9 10 10 10 11 12 12 13 13 13 14 14 14 14 13 13 12 12 11 11 11 10 10 10 10 11 11 11 9 7 4 2
12 12 12 11 10 9 9 8 8 7 7 8 8 8 9 9 10 11 11 12 12 12 12 13 13 13 12 12 12 11 11 10 9 9 8 8 9 9 10 9 7 6 3
10 10 9 8 7 7 6 6 5 5 5 5 6 7 7 8 9 9 10 11 11 11 11 12 12 12 12 12 12 11 11 10 9 9 8 8 7 8 8 8 7 6 5
7 7 6 6 5 4 4 3 3 3 4 4 5 6 7 7 8 9 9 10 10 11 11 11 11 12 12 12 12 12 11 10 9 9 9 9 8 7 7 7 7 6 5
4 4 3 3 2 1 1 2 3 4 5 6 7 7 7 8 9 9 9 10 10 11 11 12 12 12 12 12 12 12 11 11 10 9 9 10 9 8 7 7 6 6 5
1 1 1 1 1 1 2 3 4 6 7 8 9 10 10 10 10 10 10 10 10 11 11 12 13 13 13 13 13 12 12 11 11 10 10 10 10 9 8 8 7 7 6
5 5 5 4 4 4 4 4 6 7 8 9 10 11 11 11 10 10 10 10 10 11 12 12 13 14 14 15 14 14 13 12 12 11 11 10 10 9 9 8 9 8 8
9 8 8 8 7 6 5 6 7 8 10 10 11 11 11 11 11 11 11 10 10 11 12 13 14 14 15 16 16 16 16 15 13 12 12 11 11 10 10 10 10 10 10
13 12 11 10 9 8 8 8 8 9 10 10 10 10 10 10 10 11 11 11 11 11 12 13 14 15 16 16 17 18 18 17 15 14 13 13 12 12 11 11 12 12 11
14 14 12 12 12 12 11 11 11 11 11 11 10 10 10 10 10 10 11 12 12 13 14 14 14 16 16 17 18 19 19 19 17 16 15 14 14 14 13 13 14 13 13
16 15 15 15 15 15 15 14 14 14 13 12 11 11 11 11 12 12 13 14 15 16 17 16 16 17 17 19 20 21 20 19 18 18 17 16 15 15 15 15 15 14 13
17 17 17 18 18 17 17 17 16 16 15 14 13 12 12 12 12 13 14 16 16 18 18 19 19 20 20 20 21 21 21 20 20 19 19 18 17 16 16 16 16 15 14
18 18 18 18 19 18 18 17 17 17 16 16 15 15 14 13 13 13 15 17 18 20 20 21 22 22 22 22 22 22 22 22 22 21 21 20 19 18 18 17 17 16 14
20 20 20 20 20 20 19 19 18 18 17 17 17 17 16 16 15 15 16 17 19 21 22 23 24 24 23 23 23 23 23 23 23 23 22 22 21 20 19 18 17 16 14
25 24 24 24 23 23 23 22 21 20 20 20 20 20 19 19 20 19 20 20 22 23 24 25 25 25 24 24 23 23 23 23 23 24 24 24 23 22 21 19 18 16 16
29 29 28 27 27 27 27 26 25 24 23 23 23 23 23 23 23 23 23 24 24 25 27 28 28 27 25 25 24 22 22 23 23 24 25 25 24 24 23 21 19 18 17
33 33 31 31 31 30 30 29 29 27 27 26 26 26 26 26 25 25 26 27 27 29 30 31 30 28 27 26 25 24 23 22 22 23 24 25 26 25 24 23 21 20 19
35 35 34 33 33 32 32 31 31 30 30 29 29 29 29 28 28 28 29 29 30 31 32 33 32 31 30 28 27 26 24 23 23 24 25 25 26 26 25 24 23 22 21
37 34 36 35 35 35 34 34 33 33 32 32 31 31 30 30 30 31 31 31 32 33 35 35 35 34 33 32 29 27 27 26 25 25 26 26 26 26 26 25 24 23 23
35 35 36 37 37 37 36 36 36 35 35 34 33 33 32 31 31 32 32 33 34 35 36 37 38 37 36 35 32 30 28 28 27 26 26 26 26 26 26 25 25 25 24
38 36 37 38 39 39 39 38 37 36 36 36 35 34 33 32 32 32 33 34 35 37 38 39 39 38 37 36 35 32 29 28 27 28 27 25 25 25 25 26 26 27 26
38 37 38 40 40 40 39 37 35 36 35 35 35 34 33 32 32 32 33 34 36 37 39 40 40 40 39 38 36 34 31 30 29 28 29 28 26 26 27 27 27 28 28
37 36 36 38 39 38 36 34 34 34 33 34 33 31 31 31 31 32 34 36 38 39 39 40 41 41 40 38 36 34 32 31 30 29 29 30 29 28 28 27 28 28 29
40 38 36 34 33 32 31 31 32 32 32 32 30 30 31 32 34 35 37 38 39 39 40 40 40 40 39 37 35 34 33 33 32 32 31 30 30 30 29 27 27 27 28

GEFSSE_500_meanwind_036.txt.gz
Wind_Speed
17 17 15 15 15 15 16 16 16 16 16 15 15 15 16 16 17 17 17 17 17 17 17 16 16 15 15 14 13 12 11 11 10 9 8 7 6 5 3 3 3 3 3
14 14 13 12 11 11 12 13 13 13 13 13 13 13 14 14 15 16 16 16 15 15 15 15 15 15 14 13 12 12 11 11 10 9 9 8 8 6 5 3 2 2 2
11 10 9 8 8 8 9 10 11 11 11 11 11 11 11 12 13 14 14 14 14 14 14 14 14 14 13 13 12 11 11 11 10 10 9 8 8 7 6 4 2 1 1
8 7 6 6 6 7 7 8 9 9 9 9 9 9 10 10 11 12 12 13 13 13 13 12 12 12 12 12 11 11 11 11 11 10 9 8 8 8 7 5 4 2 1
6 4 4 5 5 6 7 7 7 8 8 8 8 8 9 9 10 10 11 11 12 12 12 12 12 11 10 10 10 10 10 10 10 10 10 9 8 8 7 6 5 4 2
3 2 3 4 5 5 6 6 7 7 7 8 8 9 8 9 9 9 9 10 11 11 11 11 11 11 10 9 9 8 8 9 10 10 10 9 8 8 7 6 5 5 4
2 4 4 4 5 5 5 5 6 7 7 8 8 8 8 8 8 8 9 9 9 10 10 10 11 11 10 10 9 8 8 8 8 10 10 9 8 8 8 7 7 6 6
4 5 6 5 5 5 5 5 5 6 7 8 8 8 8 8 7 7 7 7 8 9 10 10 10 11 10 10 9 9 8 8 8 9 10 10 9 9 8 9 9 8 8
7 7 7 7 7 7 6 6 6 6 7 8 9 8 8 7 7 6 6 6 7 8 9 10 11 11 11 11 11 10 9 9 9 9 10 10 10 10 10 10 10 10 10
10 10 9 9 9 9 8 8 7 7 8 9 9 9 8 7 7 6 5 6 6 7 9 10 11 12 12 12 13 13 12 11 11 10 10 11 11 11 11 11 11 11 11
13 12 12 11 11 11 11 11 10 10 11 11 11 10 9 9 8 7 7 6 7 8 9 10 12 13 13 14 14 15 15 14 13 12 12 12 12 12 12 13 13 13 13
14 15 14 13 13 13 13 14 14 14 14 13 13 12 11 11 10 9 9 8 8 9 10 11 12 13 14 15 15 16 16 16 15 14 14 13 13 13 13 14 14 14 14
15 15 15 15 15 15 16 16 17 16 16 15 15 15 14 13 12 11 10 10 10 10 10 11 12 13 15 16 16 17 17 17 17 16 16 16 15 15 15 15 15 15 15
15 16 16 16 17 17 18 18 18 17 17 17 16 16 16 15 14 13 13 13 12 12 12 12 12 13 15 16 16 17 17 17 18 18 18 18 17 17 16 16 15 16 16
18 18 18 18 19 19 20 20 20 20 20 20 19 18 18 17 17 16 16 15 15 15 15 14 14 15 16 17 17 17 18 18 19 19 19 19 19 19 19 18 17 17 17
21 21 21 21 22 22 23 23 23 23 23 22 22 21 21 20 20 19 19 19 18 18 17 16 16 17 18 18 19 19 20 20 20 20 19 20 20 21 21 20 19 19 18
24 24 24 25 25 25 26 26 27 28 27 26 26 25 24 23 22 22 22 21 21 21 20 19 19 20 20 21 21 22 22 23 23 22 21 21 21 21 22 22 22 21 20
27 27 27 28 29 30 30 31 31 32 32 31 30 29 28 26 25 24 24 24 23 23 23 22 21 22 23 23 23 24 24 25 25 24 23 22 22 22 23 23 23 23 23
30 30 30 31 32 32 33 34 33 35 36 35 33 33 32 30 28 26 26 26 25 25 25 25 24 25 25 25 25 26 27 27 27 26 26 25 24 24 24 25 24 24 24
32 32 33 33 34 35 36 36 37 37 38 37 37 36 35 33 31 29 28 28 27 27 27 27 27 27 28 28 28 28 29 29 29 29 28 28 27 27 26 27 26 25 25
34 34 34 34 35 37 38 38 38 40 40 40 41 40 38 36 34 32 32 31 30 29 29 29 30 30 31 31 31 31 31 32 31 31 30 30 29 29 28 28 28 27 27
35 35 35 36 37 38 38 39 41 42 44 44 44 43 41 39 37 35 34 33 32 31 31 31 31 31 32 34 34 34 32 33 34 33 33 32 31 31 30 30 29 28 28
35 34 34 36 38 38 37 39 41 44 45 45 45 45 45 43 41 39 36 35 34 32 31 31 31 31 33 35 37 37 35 33 34 35 36 34 33 32 32 31 30 29 29
38 36 37 38 39 40 40 41 42 43 42 43 44 44 43 42 41 40 37 35 34 31 30 30 31 33 34 36 37 38 38 36 34 32 34 36 35 34 32 31 31 31 31
42 41 40 41 41 42 42 43 43 43 42 42 42 42 41 40 38 37 34 31 30 29 29 30 31 33 34 36 37 37 37 37 36 33 31 34 35 35 34 33 33 32 32
47 47 46 46 46 45 46 45 45 44 42 39 35 33 33 34 33 32 30 28 28 29 29 30 32 34 35 36 36 36 36 35 34 33 30 30 33 35 35 34 34 34 34

GEFSSE_500_meanwind_042.txt.gz
Wind_Speed
13 12 11 10 9 8 8 8 9 10 11 11 12 12 13 13 13 13 13 12 12 11 11 10 9 9 9 8 8 8 8 8 8 7 8 7 7 6 4 3 2 1 0
11 9 8 7 6 6 6 7 8 8 9 9 10 10 11 11 11 11 11 11 10 10 9 8 8 7 7 7 7 7 7 7 7 6 6 6 6 6 5 3 2 1 1
8 7 6 6 5 5 6 6 7 7 7 8 8 9 9 9 9 9 9 9 9 8 8 7 6 6 6 6 6 6 6 6 6 5 5 5 5 5 5 4 3 2 1
6 6 5 5 5 5 5 6 6 6 7 7 8 8 8 8 8 8 8 8 8 7 6 6 5 5 4 4 5 5 5 5 5 5 4 4 4 4 4 4 3 2 1
5 4 5 5 5 5 5 5 6 6 6 7 7 7 7 7 7 7 7 6 6 6 6 5 5 4 4 4 4 5 5 5 5 4 3 3 3 3 3 3 2 2 2
3 3 4 4 4 5 5 5 6 6 7 7 7 7 7 7 6 6 5 5 5 5 6 6 6 6 5 5 5 5 6 6 5 4 4 3 4 3 3 4 3 3 3
3 2 1 2 4 5 5 5 6 6 7 7 7 7 7 7 6 5 5 5 5 5 6 6 6 7 7 7 6 7 7 8 7 6 6 5 5 5 5 5 4 4 4
4 3 2 3 4 5 6 6 6 7 7 7 7 7 7 7 7 5 5 5 5 5 6 6 7 8 8 8 8 8 9 9 9 9 8 7 7 7 6 6 6 6 5
8 7 6 6 7 8 8 8 8 8 7 8 8 8 8 8 8 7 6 6 6 6 7 7 7 9 9 9 9 9 10 10 11 11 10 10 9 9 9 8 8 7 6
10 10 10 10 10 11 11 11 10 10 10 10 10 10 10 10 9 9 8 8 8 8 8 9 9 10 10 10 10 10 10 11 12 12 12 12 12 12 11 10 10 10 9
12 12 12 13 13 13 13 13 13 13 13 13 12 12 12 11 11 11 10 10 11 11 11 10 11 11 11 11 11 11 11 12 12 13 13 13 14 14 14 13 12 12 11
13 13 13 14 14 14 14 15 15 15 15 15 15 14 13 13 13 13 13 13 13 13 13 13 13 13 12 11 11 11 12 12 12 13 13 14 15 15 15 15 14 14 13
13 13 13 14 14 15 15 16 16 16 16 16 16 16 16 16 16 16 16 16 16 16 16 15 15 15 14 14 13 12 12 12 13 13 14 14 15 16 16 17 17 16 15
14 14 15 16 16 17 17 18 18 18 18 18 18 18 18 18 18 18 19 19 19 19 19 18 18 18 18 17 16 15 14 14 14 15 15 15 16 16 17 18 18 18 18
18 18 19 19 20 20 20 21 21 21 21 21 21 21 21 21 21 22 22 22 22 22 22 22 22 21 21 20 19 19 18 17 16 16 17 17 17 18 18 18 19 19 20
23 23 23 24 24 25 25 25 26 26 25 26 25 25 25 25 25 25 26 26 26 26 26 25 25 25 24 23 22 22 22 21 20 19 19 19 19 19 19 20 20 20 21
28 28 28 28 29 29 30 30 30 30 29 30 30 30 29 30 30 30 30 30 29 29 29 29 28 28 27 26 25 25 24 24 24 23 22 22 22 21 21 21 21 21 22
33 33 33 33 33 34 34 35 34 34 34 34 35 34 34 34 35 34 34 34 33 32 32 31 31 30 29 29 28 28 27 27 27 26 26 25 24 24 23 23 23 22 23
38 38 38 38 38 39 39 39 39 39 38 38 39 38 39 39 39 39 38 38 37 36 35 34 34 33 32 31 30 30 30 30 30 29 29 28 27 27 26 26 25 25 25
43 43 42 42 42 43 43 43 43 43 42 42 42 42 43 43 43 43 42 42 41 39 38 37 37 36 36 34 33 33 33 33 32 32 31 31 30 29 28 28 27 27 27
47 47 46 46 46 46 46 46 45 45 45 45 45 45 46 46 46 46 46 45 45 43 42 41 40 40 38 37 35 35 35 35 34 34 34 33 32 31 30 29 29 28 28
47 47 47 48 48 49 49 49 48 47 47 46 46 45 45 47 48 47 47 47 47 46 44 44 43 41 40 39 37 36 35 36 35 35 35 34 33 33 31 31 30 30 30
44 45 45 46 47 49 49 49 48 48 47 45 46 46 46 47 48 48 48 49 48 47 45 45 45 42 41 40 39 37 36 36 36 34 34 34 33 32 32 31 31 31 31
42 43 45 46 47 47 48 49 49 48 48 47 47 47 46 47 47 47 48 49 49 48 47 46 45 43 43 41 38 36 35 35 34 32 33 34 33 32 31 31 31 31 31
43 44 46 47 48 49 50 50 50 51 50 49 48 47 46 46 47 47 48 47 47 47 44 41 39 40 39 37 37 35 34 33 32 31 31 32 32 32 32 31 30 30 30
44 45 46 48 49 50 51 52 53 53 53 52 50 49 48 48 48 48 47 47 46 46 42 40 39 37 35 33 33 32 32 32 31 31 30 30 30 31 32 32 30 29 29